Sigfox identifier Datetime Temperature Humidity SNR
003B5D8C 2019-02-20 14:09:47 20.9 24 23.8
003B5D8C 2019-02-20 13:40:01 20.9 24 23.8
003B5D8C 2019-02-20 13:10:07 20.9 25 23.7
003B5D8C 2019-02-20 12:40:15 20.9 25 23
003B5D8C 2019-02-20 12:10:26 20.9 26 23
003B5D8C 2019-02-20 11:40:36 20.9 26 23.1
003B5D8C 2019-02-20 11:10:40 20.9 26 22.1
003B5D8C 2019-02-20 10:40:50 20.8 26 22.1
003B5D8C 2019-02-20 10:10:57 20.8 27 21
003B5D8C 2019-02-20 09:41:06 20.8 27 21.1
003B5D8C 2019-02-20 09:11:14 20.8 27 19.5
003B5D8C 2019-02-20 08:41:24 20.8 27 17.1
003B5D8C 2019-02-20 08:11:33 20.8 27 17.1
003B5D8C 2019-02-20 07:41:46 20.8 27 17.1
003B5D8C 2019-02-20 07:11:53 20.8 27 17.2
003B5D8C 2019-02-20 06:12:10 20.8 27 16.8
003B5D8C 2019-02-20 05:42:19 20.8 27 17.1
003B5D8C 2019-02-20 05:12:28 20.9 27 16.6
003B5D8C 2019-02-20 04:42:37 20.9 27 17
003B5D8C 2019-02-20 04:12:46 20.9 27 17
003B5D8C 2019-02-20 03:42:55 20.9 27 17
003B5D8C 2019-02-20 03:13:05 20.9 27 16.8
003B5D8C 2019-02-20 02:43:14 20.9 27 16.8
003B5D8C 2019-02-20 02:13:27 20.9 27 19.4
003B5D8C 2019-02-20 01:43:32 20.9 27 19.3
003B5D8C 2019-02-20 01:13:41 20.9 27 19.1
003B5D8C 2019-02-20 00:43:50 20.9 27 19.1
003B5D8C 2019-02-20 00:13:57 20.9 27 19.1
003B5D8C 2019-02-19 23:44:05 20.9 27 20.7
003B5D8C 2019-02-19 23:14:13 20.9 27 20.7
003B5D8C 2019-02-19 22:44:22 21 27 21.9
003B5D8C 2019-02-19 22:14:30 21 27 21.9
003B5D8C 2019-02-19 21:44:38 21 27 21.9
003B5D8C 2019-02-19 21:14:46 21 27 21.8
003B5D8C 2019-02-19 20:44:53 21 27 22.7
003B5D8C 2019-02-19 20:15:00 21 27 22.7
003B5D8C 2019-02-19 19:45:07 21.3 26 22.7
003B5D8C 2019-02-19 19:43:58 21 27 22.7
003B5D8C 2019-02-19 19:14:06 21.1 27 22.7
003B5D8C 2019-02-19 18:44:13 21.1 27 22.6
003B5D8C 2019-02-19 18:14:19 21.1 27 22.7
003B5D8C 2019-02-19 17:44:27 21.1 27 22.7
003B5D8C 2019-02-19 17:14:35 21.1 27 22.8
003B5D8C 2019-02-19 16:44:47 21.1 27 22.7
003B5D8C 2019-02-19 16:14:54 21.1 27 22.7
003B5D8C 2019-02-19 15:45:00 21.1 26 22.7
003B5D8C 2019-02-19 15:15:09 21.1 26 22.7
003B5D8C 2019-02-19 14:45:17 21.1 26 22.7
003B5D8C 2019-02-19 14:15:27 21.1 26 21.6
003B5D8C 2019-02-19 13:45:31 21.1 26 21.6
003B5D8C 2019-02-19 12:45:46 21.1 26 21.6
003B5D8C 2019-02-19 12:15:53 21.1 26 21.7
003B5D8C 2019-02-19 11:46:03 21 26 21.7
003B5D8C 2019-02-19 11:16:09 21 26 20.6
003B5D8C 2019-02-19 10:16:26 20.9 25 20.5
003B5D8C 2019-02-19 09:16:41 20.9 25 18.7
003B5D8C 2019-02-19 08:46:54 20.9 25 18.8
003B5D8C 2019-02-19 08:17:00 20.9 24 18.8
003B5D8C 2019-02-19 07:47:09 20.9 24 19
003B5D8C 2019-02-19 07:17:16 20.8 24 16
003B5D8C 2019-02-19 06:47:24 20.9 24 16
003B5D8C 2019-02-19 06:17:32 20.9 24 15.9
003B5D8C 2019-02-19 05:47:40 20.8 24 15.9
003B5D8C 2019-02-19 05:17:48 20.9 24 15.9
003B5D8C 2019-02-19 04:47:55 20.9 24 15.9
003B5D8C 2019-02-19 04:18:02 20.9 24 18.7
003B5D8C 2019-02-19 03:48:09 20.9 24 18.7
003B5D8C 2019-02-19 03:18:18 20.9 23 18.6
003B5D8C 2019-02-19 02:48:26 20.9 23 18.5
003B5D8C 2019-02-19 02:18:34 20.9 23 18.6
003B5D8C 2019-02-19 01:48:43 20.9 23 18.7
003B5D8C 2019-02-19 01:18:51 20.9 23 18.7
003B5D8C 2019-02-19 00:48:59 20.9 23 18.9
003B5D8C 2019-02-18 23:49:15 20.9 23 19.1
003B5D8C 2019-02-18 23:19:25 20.9 23 19.2
003B5D8C 2019-02-18 22:49:32 20.9 22 19.3
003B5D8C 2019-02-18 22:19:40 20.9 22 19.2
003B5D8C 2019-02-18 21:49:48 20.9 22 19.3
003B5D8C 2019-02-18 21:19:57 20.9 22 19.1
003B5D8C 2019-02-18 20:49:59 20.9 22 19.2
003B5D8C 2019-02-18 20:20:03 20.9 22 19.3
003B5D8C 2019-02-18 19:50:06 20.9 22 19.4
003B5D8C 2019-02-18 19:20:11 21.2 21 19.4
003B5D8C 2019-02-18 19:19:01 21 22 19.5
003B5D8C 2019-02-18 18:49:05 21 22 19.7
003B5D8C 2019-02-18 18:19:11 21 21 19.7
003B5D8C 2019-02-18 17:49:15 21 21 21.2
003B5D8C 2019-02-18 17:19:20 21 21 21.3
003B5D8C 2019-02-18 16:19:32 21.1 21 21.3
003B5D8C 2019-02-18 15:49:40 21.1 21 21.4
003B5D8C 2019-02-18 15:19:50 21.1 21 20.2
003B5D8C 2019-02-18 14:49:57 21.1 21 20.4
003B5D8C 2019-02-18 14:20:04 21.1 21 20.5
003B5D8C 2019-02-18 13:50:14 21.2 20 20.7
003B5D8C 2019-02-18 13:20:20 21.2 20 20.7
003B5D8C 2019-02-18 12:50:27 21.3 20 20.7
003B5D8C 2019-02-18 12:20:34 21.4 19 20.8
003B5D8C 2019-02-18 11:50:40 21.3 19 20.7
003B5D8C 2019-02-18 11:20:48 21.3 19 21
003B5D8C 2019-02-18 10:50:56 21.2 19 21.2
003B5D8C 2019-02-18 10:21:04 21.2 19 21.2
003B5D8C 2019-02-18 09:51:11 21.2 19 21.4
003B5D8C 2019-02-18 09:21:20 21.2 19 22.4
003B5D8C 2019-02-18 08:51:28 21.1 19 22.6
003B5D8C 2019-02-18 08:21:37 21.1 19 22.6
003B5D8C 2019-02-18 07:51:45 21 19 22.7
003B5D8C 2019-02-18 07:21:55 21 19 22.8
003B5D8C 2019-02-18 06:52:03 21 19 22.9
003B5D8C 2019-02-18 06:22:12 21 19 23
003B5D8C 2019-02-18 05:52:21 21 19 23
003B5D8C 2019-02-18 05:22:30 21 19 23.1
003B5D8C 2019-02-18 04:52:39 21 19 22.3
003B5D8C 2019-02-18 04:22:50 21 19 22.4
003B5D8C 2019-02-18 03:52:59 21 19 22.5
003B5D8C 2019-02-18 03:23:10 21 19 22.7
003B5D8C 2019-02-18 02:53:19 21 19 22.7
003B5D8C 2019-02-18 02:23:29 21 19 22.8
003B5D8C 2019-02-18 01:53:38 21.1 19 22.8
003B5D8C 2019-02-18 01:23:46 21.1 19 22.8
003B5D8C 2019-02-18 00:53:54 21.1 19 22.8
003B5D8C 2019-02-18 00:24:02 21.1 19 23
003B5D8C 2019-02-17 23:54:11 21.1 20 23
003B5D8C 2019-02-17 23:24:21 21.1 20 23.1
003B5D8C 2019-02-17 22:54:31 21.1 20 23.6
003B5D8C 2019-02-17 22:24:39 21.1 20 23.6
003B5D8C 2019-02-17 21:54:48 21.1 20 23.6
003B5D8C 2019-02-17 21:24:54 21.1 20 23.7
003B5D8C 2019-02-17 20:55:02 21.1 20 22.9
003B5D8C 2019-02-17 20:25:10 21.1 20 22.9
003B5D8C 2019-02-17 19:55:19 21.1 20 22.9
003B5D8C 2019-02-17 19:25:26 21.1 20 22.9
003B5D8C 2019-02-17 18:55:34 21.3 20 22.8
003B5D8C 2019-02-17 18:54:24 21.1 20 22.8
003B5D8C 2019-02-17 18:24:32 21.1 20 22.7
003B5D8C 2019-02-17 17:54:40 21.1 20 22.6
003B5D8C 2019-02-17 17:24:49 21.1 20 22.6
003B5D8C 2019-02-17 16:54:58 21.1 20 22.5
003B5D8C 2019-02-17 16:25:06 21.1 20 22.4
003B5D8C 2019-02-17 15:55:13 21.1 21 22.4
003B5D8C 2019-02-17 15:25:21 21.1 21 22.4
003B5D8C 2019-02-17 14:55:29 21.2 21 22.3
003B5D8C 2019-02-17 14:25:38 21.2 21 22.3
003B5D8C 2019-02-17 13:55:46 21.2 21 22.4
003B5D8C 2019-02-17 13:25:55 21.2 21 22.6
003B5D8C 2019-02-17 12:56:04 21.2 21 22.6
003B5D8C 2019-02-17 12:26:13 21.2 21 22.7
003B5D8C 2019-02-17 11:56:21 21.1 21 22.8
003B5D8C 2019-02-17 11:26:31 21.1 21 22.9
003B5D8C 2019-02-17 10:56:41 21.1 21 22.2
003B5D8C 2019-02-17 10:26:51 21.1 22 22.3
003B5D8C 2019-02-17 09:57:00 21.1 22 22.1
003B5D8C 2019-02-17 09:27:10 21.1 22 22.2
003B5D8C 2019-02-17 08:57:20 21.1 22 22.3
003B5D8C 2019-02-17 08:27:28 21.1 22 22.3
003B5D8C 2019-02-17 07:57:36 21.1 22 22.3
003B5D8C 2019-02-17 07:27:44 21.1 22 22.3
003B5D8C 2019-02-17 06:57:51 21.1 22 22.4
003B5D8C 2019-02-17 06:27:56 21.2 23 22.5
003B5D8C 2019-02-17 05:58:04 21.2 23 22.6
003B5D8C 2019-02-17 05:28:11 21.2 23 22.9
003B5D8C 2019-02-17 04:58:17 21.2 23 22.9
003B5D8C 2019-02-17 04:28:24 21.2 23 22.9
003B5D8C 2019-02-17 03:58:30 21.2 23 22.9
003B5D8C 2019-02-17 03:28:37 21.2 23 22.9
003B5D8C 2019-02-17 02:58:43 21.2 24 22.9
003B5D8C 2019-02-17 02:28:49 21.2 24 22.9
003B5D8C 2019-02-17 01:58:58 21.2 24 23
003B5D8C 2019-02-17 01:29:04 21.2 24 22.9
003B5D8C 2019-02-17 00:59:11 21.2 24 22.9
003B5D8C 2019-02-17 00:29:18 21.2 24 22.9
003B5D8C 2019-02-16 23:59:26 21.2 24 22.7
003B5D8C 2019-02-16 23:29:35 21.2 24 22.7
003B5D8C 2019-02-16 22:59:42 21.2 25 22.5
003B5D8C 2019-02-16 22:29:51 21.2 25 22.5
003B5D8C 2019-02-16 21:59:59 21.3 25 22.3
003B5D8C 2019-02-16 21:30:07 21.2 25 22.5
003B5D8C 2019-02-16 21:00:16 21.3 25 22.3
003B5D8C 2019-02-16 20:30:24 21.2 25 22.4
003B5D8C 2019-02-16 20:00:32 21.2 25 22.2
003B5D8C 2019-02-16 19:30:40 21.2 25 22.1
003B5D8C 2019-02-16 19:00:48 21.2 25 22.1
003B5D8C 2019-02-16 18:30:57 21.4 25 22.1
003B5D8C 2019-02-16 18:29:47 21.2 25 22
003B5D8C 2019-02-16 17:59:56 21.3 25 22
003B5D8C 2019-02-16 17:30:05 21.3 25 21.9
003B5D8C 2019-02-16 17:00:13 21.3 25 21.8
003B5D8C 2019-02-16 16:30:21 21.3 25 22
003B5D8C 2019-02-16 16:00:29 21.3 25 21.9
003B5D8C 2019-02-16 15:30:37 21.3 25 21.9
003B5D8C 2019-02-16 15:00:44 21.4 25 21.9
003B5D8C 2019-02-16 14:30:51 21.4 25 21.9
003B5D8C 2019-02-16 14:00:58 21.3 25 21.9
003B5D8C 2019-02-16 13:31:06 21.3 25 21.9
003B5D8C 2019-02-16 13:01:15 21.3 25 21.8
003B5D8C 2019-02-16 12:31:24 21.3 25 21.7
003B5D8C 2019-02-16 12:01:32 21.3 25 21.6
003B5D8C 2019-02-16 11:31:40 21.3 25 21.5
003B5D8C 2019-02-16 11:01:49 21.3 25 21.5
003B5D8C 2019-02-16 10:31:57 21.2 25 21.4
003B5D8C 2019-02-16 10:02:05 21.2 25 21.6
003B5D8C 2019-02-16 09:32:14 21.2 25 21.4
003B5D8C 2019-02-16 09:02:23 21.2 25 21.5
003B5D8C 2019-02-16 08:32:32 21.2 25 21.4
003B5D8C 2019-02-16 08:02:41 21.3 25 21.6
003B5D8C 2019-02-16 07:32:51 21.3 25 21.6
003B5D8C 2019-02-16 07:03:01 21.3 25 21.6
003B5D8C 2019-02-16 06:33:09 21.2 25 21.8
003B5D8C 2019-02-16 06:03:19 21.2 25 21.8
003B5D8C 2019-02-16 05:33:27 21.2 25 21.8
003B5D8C 2019-02-16 05:03:35 21.3 25 21.8
003B5D8C 2019-02-16 04:33:44 21.3 25 21.8
003B5D8C 2019-02-16 04:03:52 21.3 25 21.6
003B5D8C 2019-02-16 03:34:01 21.3 25 21.6
003B5D8C 2019-02-16 03:04:09 21.3 25 21.5
003B5D8C 2019-02-16 02:34:17 21.3 25 21.6
003B5D8C 2019-02-16 02:04:26 21.3 25 21.5
003B5D8C 2019-02-16 01:34:34 21.3 25 21.5
003B5D8C 2019-02-16 01:04:42 21.4 25 21.5
003B5D8C 2019-02-16 00:34:51 21.4 25 21.5
003B5D8C 2019-02-16 00:05:00 21.4 25 21.4
003B5D8C 2019-02-15 23:35:08 21.4 25 21.5
003B5D8C 2019-02-15 23:05:17 21.4 25 21.6
003B5D8C 2019-02-15 22:35:26 21.5 25 21.7
003B5D8C 2019-02-15 22:05:35 21.5 25 21.7
003B5D8C 2019-02-15 21:35:44 21.5 25 21.8
003B5D8C 2019-02-15 21:05:53 21.6 25 21.8
003B5D8C 2019-02-15 20:36:01 21.6 25 21.7
003B5D8C 2019-02-15 20:06:10 21.7 25 21.8
003B5D8C 2019-02-15 19:36:17 21.7 25 21.8
003B5D8C 2019-02-15 19:06:26 21.7 25 21.8
003B5D8C 2019-02-15 18:36:34 21.8 25 21.8
003B5D8C 2019-02-15 18:06:42 22 25 21.8
003B5D8C 2019-02-15 18:05:32 21.8 25 21.8
003B5D8C 2019-02-15 17:35:41 21.8 25 21.9
003B5D8C 2019-02-15 17:05:47 21.7 25 22
003B5D8C 2019-02-15 16:35:54 21.7 24 22
003B5D8C 2019-02-15 16:06:00 21.7 24 22.3
003B5D8C 2019-02-15 15:36:05 21.7 24 22.5
003B5D8C 2019-02-15 15:06:10 21.7 24 22.6
003B5D8C 2019-02-15 14:36:14 21.7 24 22.5
003B5D8C 2019-02-15 14:06:21 21.7 24 22.7
003B5D8C 2019-02-15 13:36:29 21.7 24 22.7
003B5D8C 2019-02-15 13:06:38 21.6 24 22.6
003B5D8C 2019-02-15 12:36:46 21.6 24 22.6
003B5D8C 2019-02-15 12:06:54 21.6 24 22.8
003B5D8C 2019-02-15 11:37:05 21.6 25 22.7
003B5D8C 2019-02-15 11:07:09 21.6 25 22.7
003B5D8C 2019-02-15 10:37:17 21.5 25 22.7
003B5D8C 2019-02-15 10:07:25 21.5 25 22.6
003B5D8C 2019-02-15 09:37:34 21.5 25 22.6
003B5D8C 2019-02-15 09:07:41 21.5 25 23.5
003B5D8C 2019-02-15 08:37:48 21.4 25 23.6
003B5D8C 2019-02-15 08:07:56 21.4 25 23.6
003B5D8C 2019-02-15 07:38:03 21.4 25 23.6
003B5D8C 2019-02-15 07:08:10 21.4 25 23.6
003B5D8C 2019-02-15 06:38:17 21.4 25 23.6
003B5D8C 2019-02-15 06:08:25 21.4 25 23.5
003B5D8C 2019-02-15 05:38:32 21.4 25 24.1
003B5D8C 2019-02-15 05:08:40 21.4 25 24
003B5D8C 2019-02-15 04:38:48 21.4 25 23.9
003B5D8C 2019-02-15 04:08:56 21.4 25 23.8
003B5D8C 2019-02-15 03:39:04 21.4 25 23.6
003B5D8C 2019-02-15 03:09:12 21.4 25 23.5
003B5D8C 2019-02-15 02:39:18 21.4 25 23.4
003B5D8C 2019-02-15 02:09:26 21.4 25 23.3
003B5D8C 2019-02-15 01:39:33 21.5 25 23.2
003B5D8C 2019-02-15 01:09:41 21.4 25 23
003B5D8C 2019-02-15 00:39:46 21.5 25 23
003B5D8C 2019-02-15 00:09:53 21.5 25 22.9
003B5D8C 2019-02-14 23:40:02 21.5 25 22.7
003B5D8C 2019-02-14 23:10:10 21.5 25 22.6
003B5D8C 2019-02-14 22:40:17 21.5 25 22.4
003B5D8C 2019-02-14 22:10:25 21.5 25 22.2
003B5D8C 2019-02-14 21:40:35 21.5 25 22.2
003B5D8C 2019-02-14 21:10:39 21.6 24 22.1
003B5D8C 2019-02-14 20:40:48 21.7 24 21
003B5D8C 2019-02-14 20:10:56 21.7 24 20.7
003B5D8C 2019-02-14 19:41:03 21.8 24 20.5
003B5D8C 2019-02-14 19:11:10 21.8 24 20.4
003B5D8C 2019-02-14 18:41:16 21.9 24 20.5
003B5D8C 2019-02-14 18:11:23 21.9 24 20.4
003B5D8C 2019-02-14 17:41:32 22.1 24 20.2
003B5D8C 2019-02-14 17:40:22 21.9 24 18.7
003B5D8C 2019-02-14 17:10:30 21.9 24 18.7
003B5D8C 2019-02-14 16:40:38 22 24 18.7
003B5D8C 2019-02-14 16:10:45 21.9 24 18.8
003B5D8C 2019-02-14 15:40:54 21.9 24 19.2
003B5D8C 2019-02-14 15:11:03 21.8 24 18.9
003B5D8C 2019-02-14 14:41:11 21.7 24 19.1
003B5D8C 2019-02-14 14:11:20 21.6 24 19.6
003B5D8C 2019-02-14 13:41:27 21.6 24 19.7
003B5D8C 2019-02-14 13:11:36 21.6 24 19.8
003B5D8C 2019-02-14 12:41:46 21.4 23 20.1
003B5D8C 2019-02-14 12:11:55 21.4 23 20.4
003B5D8C 2019-02-14 11:42:03 21.3 24 20.5
003B5D8C 2019-02-14 11:12:13 21.3 24 20.8
003B5D8C 2019-02-14 10:42:23 21.2 24 20.8
003B5D8C 2019-02-14 10:12:30 21.1 24 22
003B5D8C 2019-02-14 09:42:37 21.1 23 22.2
003B5D8C 2019-02-14 09:12:43 21 24 22.3
003B5D8C 2019-02-14 08:42:48 20.9 24 22.3
003B5D8C 2019-02-14 08:12:54 20.9 24 22.3
003B5D8C 2019-02-14 07:43:00 20.9 25 22.3
003B5D8C 2019-02-14 07:13:05 20.9 25 22.3
003B5D8C 2019-02-14 06:43:10 20.9 25 22.2
003B5D8C 2019-02-14 06:13:16 20.9 25 22.2
003B5D8C 2019-02-14 05:43:20 20.9 25 22.3
003B5D8C 2019-02-14 05:13:25 20.9 25 22.1
003B5D8C 2019-02-14 04:43:31 20.9 25 22.1
003B5D8C 2019-02-14 04:13:36 20.9 25 22.2
003B5D8C 2019-02-14 03:43:42 20.9 25 22.1
003B5D8C 2019-02-14 03:13:51 20.9 25 22
003B5D8C 2019-02-14 02:43:59 20.9 25 22
003B5D8C 2019-02-14 02:14:08 20.9 25 22.1
003B5D8C 2019-02-14 01:44:18 20.9 25 21.9
003B5D8C 2019-02-14 01:14:25 20.9 25 21.9
003B5D8C 2019-02-14 00:44:32 20.9 25 21.9
003B5D8C 2019-02-14 00:14:40 21 25 21.7
003B5D8C 2019-02-13 23:44:47 21 25 21.6
003B5D8C 2019-02-13 23:14:55 21 25 21.4
003B5D8C 2019-02-13 22:45:03 21 25 21.3
003B5D8C 2019-02-13 22:15:11 21.1 25 21.3
003B5D8C 2019-02-13 21:45:17 21.1 25 20.1
003B5D8C 2019-02-13 21:15:24 21.2 25 20
003B5D8C 2019-02-13 20:45:32 21.2 25 19.8
003B5D8C 2019-02-13 20:15:38 21.3 25 19.8
003B5D8C 2019-02-13 19:45:47 21.3 25 19.9
003B5D8C 2019-02-13 19:15:54 21.4 25 20
003B5D8C 2019-02-13 18:46:02 21.5 25 20.1
003B5D8C 2019-02-13 18:16:10 21.6 26 20
003B5D8C 2019-02-13 17:46:18 21.6 26 20.3
003B5D8C 2019-02-13 17:16:25 21.8 26 20.3
003B5D8C 2019-02-13 17:15:17 21.5 26 20.6
003B5D8C 2019-02-13 16:45:23 21.5 27 20.6
003B5D8C 2019-02-13 16:15:31 21.4 26 20.6
003B5D8C 2019-02-13 15:45:39 21.3 25 20.8
003B5D8C 2019-02-13 15:15:48 21.3 25 20.9
003B5D8C 2019-02-13 14:45:54 21.2 25 21.1
003B5D8C 2019-02-13 14:16:02 21.2 24 21.1
003B5D8C 2019-02-13 13:46:09 21.3 24 21.2
003B5D8C 2019-02-13 13:16:17 21.3 24 21.2
003B5D8C 2019-02-13 12:46:24 21.3 24 21.3
003B5D8C 2019-02-13 12:16:31 21.2 24 21.4
003B5D8C 2019-02-13 11:46:38 21.2 24 21.4
003B5D8C 2019-02-13 11:16:45 21.1 24 21.4
003B5D8C 2019-02-13 10:46:52 21 24 21.6
003B5D8C 2019-02-13 10:16:59 21 23 21.6
003B5D8C 2019-02-13 09:47:05 21 23 21.4
003B5D8C 2019-02-13 09:17:11 20.9 22 21.3
003B5D8C 2019-02-13 08:47:15 20.9 21 21.6
003B5D8C 2019-02-13 08:17:19 20.8 21 21.6
003B5D8C 2019-02-13 07:47:22 20.8 20 21.7
003B5D8C 2019-02-13 07:17:26 20.9 19 21.7
003B5D8C 2019-02-13 06:47:30 20.9 19 21.7
003B5D8C 2019-02-13 06:17:36 20.9 19 21.9
003B5D8C 2019-02-13 05:47:42 20.9 19 21.8
003B5D8C 2019-02-13 05:17:49 20.9 19 21.6
003B5D8C 2019-02-13 04:47:56 20.9 19 21.3
003B5D8C 2019-02-13 04:18:00 20.9 19 21.2
003B5D8C 2019-02-13 03:48:04 20.9 19 21.1
003B5D8C 2019-02-13 03:18:10 20.9 19 21.1
003B5D8C 2019-02-13 02:48:18 20.9 19 20.9
003B5D8C 2019-02-13 02:18:23 20.9 18 20.7
003B5D8C 2019-02-13 01:48:30 20.9 18 20.6
003B5D8C 2019-02-13 01:18:37 20.9 18 20.2
003B5D8C 2019-02-13 00:48:44 21 19 20
003B5D8C 2019-02-13 00:18:52 21 19 19.9
003B5D8C 2019-02-12 23:48:58 21 19 19.8
003B5D8C 2019-02-12 23:19:04 21 19 19.7
003B5D8C 2019-02-12 22:49:11 21.1 19 19.6
003B5D8C 2019-02-12 22:19:17 21.1 19 19.6
003B5D8C 2019-02-12 21:49:24 21.2 19 19.8
003B5D8C 2019-02-12 21:19:30 21.3 20 20
003B5D8C 2019-02-12 20:49:36 21.3 21 19.9
003B5D8C 2019-02-12 20:19:42 21.4 21 19.4
003B5D8C 2019-02-12 19:49:48 21.5 20 19.3
003B5D8C 2019-02-12 19:19:59 21.6 20 19.1
003B5D8C 2019-02-12 18:50:02 21.6 19 18.7
003B5D8C 2019-02-12 18:20:09 21.6 19 18.7
003B5D8C 2019-02-12 17:50:16 21.7 19 18.5
003B5D8C 2019-02-12 17:20:24 21.7 19 18.6
003B5D8C 2019-02-12 16:50:31 22.1 18 19
003B5D8C 2019-02-12 16:49:23 21.9 19 19.1
003B5D8C 2019-02-12 16:19:27 22 18 19.3
003B5D8C 2019-02-12 15:49:33 22 19 19.3
003B5D8C 2019-02-12 15:19:39 22 19 19.3
003B5D8C 2019-02-12 14:49:46 21.8 19 19.3
003B5D8C 2019-02-12 14:19:56 21.5 19 19.8
003B5D8C 2019-02-12 13:50:01 21.4 19 19.9
003B5D8C 2019-02-12 13:20:08 21.4 19 20.1
003B5D8C 2019-02-12 12:50:15 21.4 20 20.3
003B5D8C 2019-02-12 12:20:21 21.4 20 20.3
003B5D8C 2019-02-12 11:50:27 21.4 20 20.5
003B5D8C 2019-02-12 11:20:34 21.4 21 20.5
003B5D8C 2019-02-12 10:50:40 21.4 21 20.5
003B5D8C 2019-02-12 10:20:46 21.3 23 20.5
003B5D8C 2019-02-12 09:50:51 21.2 22 20.4
003B5D8C 2019-02-12 09:20:57 21.1 23 20.5
003B5D8C 2019-02-12 08:51:03 21 23 20.8
003B5D8C 2019-02-12 08:21:08 20.9 24 21.1
003B5D8C 2019-02-12 07:51:14 20.9 24 21.2
003B5D8C 2019-02-12 07:21:20 20.9 25 21.3
003B5D8C 2019-02-12 06:51:25 20.9 26 21.5
003B5D8C 2019-02-12 06:21:31 20.9 26 21.6
003B5D8C 2019-02-12 05:51:37 20.9 26 21.7
003B5D8C 2019-02-12 05:21:41 20.9 26 21.6
003B5D8C 2019-02-12 04:51:48 20.9 26 21.4
003B5D8C 2019-02-12 04:21:53 20.9 27 21.4
003B5D8C 2019-02-12 03:52:00 20.9 27 21.4
003B5D8C 2019-02-12 03:22:06 20.9 27 21.6
003B5D8C 2019-02-12 02:52:12 20.9 27 21.5
003B5D8C 2019-02-12 02:22:18 21 27 21.7
003B5D8C 2019-02-12 01:52:24 21 27 21.4
003B5D8C 2019-02-12 01:22:30 21 27 21.4
003B5D8C 2019-02-12 00:52:35 21 27 21.5
003B5D8C 2019-02-12 00:22:40 21 27 21.4
003B5D8C 2019-02-11 23:52:44 21 27 21.5
003B5D8C 2019-02-11 23:22:48 21.1 27 21.5
003B5D8C 2019-02-11 22:52:51 21.1 27 21.8
003B5D8C 2019-02-11 22:22:56 21.2 27 22
003B5D8C 2019-02-11 21:52:59 21.2 27 22.1
003B5D8C 2019-02-11 21:23:02 21.2 27 22
003B5D8C 2019-02-11 20:53:06 21.3 27 21.8
003B5D8C 2019-02-11 20:23:09 21.4 27 21.5
003B5D8C 2019-02-11 19:53:14 21.5 27 21.4
003B5D8C 2019-02-11 19:23:19 21.6 27 21.4
003B5D8C 2019-02-11 18:53:24 21.7 27 21.3
003B5D8C 2019-02-11 18:23:29 21.8 27 20.3
003B5D8C 2019-02-11 17:53:32 22 28 19.6
003B5D8C 2019-02-11 17:23:38 22.1 28 14.2
003B5D8C 2019-02-11 16:53:42 22.2 28 12.8
003B5D8C 2019-02-11 16:23:44 22.4 33 0